Belmar-Farmingdale, NJ

1:34 PM EST on November 18, 2019 (GMT -0500)
Allaire

Weather History for KBLM - September, 2019

Change the Weather History Date:

Sunday, September 1, 2019

  Actual Average Record
Temperature  
Mean Temperature 69 °F -  
Max Temperature 75 °F 76 °F 95 °F (2010)
Min Temperature 63 °F 61 °F 54 °F (2017)
Cooling Degree Days 4    
Growing Degree Days 19 (Base 50)    
Moisture  
Dew Point 62 °F    
Average Humidity 75    
Maximum Humidity 87    
Minimum Humidity 60    
Precipitation  
Precipitation 0.00 in - - ()
Sea Level Pressure  
Sea Level Pressure 30.31 in    
Wind  
Wind Speed 6 mph ()    
Max Wind Speed 14 mph    
Max Gust Speed 18 mph    
Visibility 9.9 miles    
Events      
Averages and records for this station are not official NWS values.
T = Trace of Precipitation, MM = Missing Value Source: Averaged Metar Reports

Daily Weather History Graph

Daily Weather History Graph

Search for Another Location

Airport or City:

Astronomy

Sep. 01, 2019 Rise Set
Actual Time 6:23 AM EDT 7:28 PM EDT
Civil Twilight 5:55 AM EDT 7:56 PM EDT
Nautical Twilight 5:22 AM EDT 8:29 PM EDT
Astronomical Twilight 4:47 AM EDT 9:04 PM EDT
Moon 8:50 AM EDT (9/1) 9:14 PM EDT (9/1)
Length of Visible Light 14h 00m
Length of Day
13h 04m
Waxing Crescent, 8% of the Moon is Illuminated
Sep 1
Waxing Crescent
Sep 5
First Quarter
Sep 14
Full
Sep 21
Last Quarter
Sep 28
New

Hourly Weather History & Observations

Time (EDT) Temp. Dew Point Humidity Pressure Visibility Wind Dir Wind Speed Gust Speed Precip Events Conditions
12:56 AM 64.0 °F 60.1 °F 87% 30.30 in 10.0 mi Calm Calm - N/A   Clear
1:56 AM 66.0 °F 60.1 °F 81% 30.31 in 10.0 mi NE 4.6 mph - N/A   Clear
2:56 AM 63.0 °F 59.0 °F 87% 30.31 in 10.0 mi Calm Calm - N/A   Clear
3:56 AM 64.0 °F 57.9 °F 80% 30.31 in 10.0 mi NNE 4.6 mph - N/A   Clear
4:56 AM 64.0 °F 57.9 °F 80% 30.31 in 10.0 mi North 4.6 mph - N/A   Clear
5:56 AM 63.0 °F 57.0 °F 81% 30.33 in 10.0 mi North 3.5 mph - N/A   Clear
6:56 AM 63.0 °F 57.9 °F 84% 30.33 in 10.0 mi NNE 3.5 mph - N/A   Clear
7:56 AM 64.9 °F 59.0 °F 81% 30.33 in 8.0 mi NE 5.8 mph - N/A   Clear
8:56 AM 69.1 °F 61.0 °F 75% 30.33 in 10.0 mi NE 11.5 mph - N/A   Clear
9:56 AM 71.1 °F 62.1 °F 73% 30.34 in 10.0 mi ENE 11.5 mph - N/A   Clear
10:56 AM 71.1 °F 64.9 °F 81% 30.35 in 10.0 mi East 8.1 mph - N/A   Scattered Clouds
11:07 AM 71.6 °F 66.2 °F 83% 30.35 in 10.0 mi East 10.4 mph - N/A   Mostly Cloudy
11:15 AM 71.6 °F 64.4 °F 78% 30.35 in 10.0 mi ENE 11.5 mph - N/A   Scattered Clouds
11:31 AM 73.4 °F 64.4 °F 73% 30.35 in 10.0 mi East 13.8 mph 18.4 mph N/A   Mostly Cloudy
11:53 AM 73.4 °F 62.6 °F 69% 30.35 in 10.0 mi East 11.5 mph 16.1 mph N/A   Scattered Clouds
11:56 AM 75.0 °F 64.0 °F 69% 30.35 in 10.0 mi East 11.5 mph - N/A   Scattered Clouds
12:56 PM 73.9 °F 61.0 °F 64% 30.34 in 10.0 mi East 9.2 mph - N/A   Scattered Clouds
1:56 PM 75.0 °F 60.1 °F 60% 30.33 in 10.0 mi East 12.7 mph - N/A   Scattered Clouds
2:56 PM 75.0 °F 61.0 °F 62% 30.31 in 10.0 mi East 13.8 mph - N/A   Mostly Cloudy
3:56 PM 75.0 °F 62.1 °F 64% 30.30 in 10.0 mi East 12.7 mph 16.1 mph N/A   Clear
4:56 PM 73.0 °F 62.1 °F 68% 30.30 in 10.0 mi East 11.5 mph - N/A   Scattered Clouds
5:56 PM 73.0 °F 62.1 °F 68% 30.29 in 10.0 mi ESE 9.2 mph - N/A   Clear
6:56 PM 71.1 °F 63.0 °F 75% 30.29 in 10.0 mi East 8.1 mph - N/A   Clear
7:56 PM 70.0 °F 63.0 °F 78% 30.27 in 10.0 mi ESE 8.1 mph - N/A   Scattered Clouds
8:56 PM 70.0 °F 63.0 °F 78% 30.27 in 10.0 mi ESE 8.1 mph - N/A   Clear
9:56 PM 70.0 °F 63.0 °F 78% 30.26 in 10.0 mi ESE 6.9 mph - N/A   Clear
10:56 PM 69.1 °F 62.1 °F 78% 30.25 in 10.0 mi ESE 6.9 mph - N/A   Clear
11:56 PM 69.1 °F 62.1 °F 78% 30.24 in 10.0 mi ESE 5.8 mph - N/A   Clear